N0MR Weather Reports


time (UTC)temp
F
wind
direction
speed
knots
gust
knots
rain 1hr
in
rain 24hr
in
rain mn
in
humidity
%
barometer
mb
20260510130204 35 10 0.9 4.3 0.00 0.00 0.00 87 1018.2
20260510125205 35 10 0.9 4.3 0.00 0.00 0.00 87 1018.2
20260510124205 34 9 3.5 3.5 0.00 0.00 0.00 89 1017.8
20260510123204 34 9 3.5 3.5 0.00 0.00 0.00 89 1017.8
20260510122205 33 334 0.9 4.3 0.00 0.00 0.00 90 1017.5
20260510121205 33 334 0.9 4.3 0.00 0.00 0.00 90 1017.5
20260510120205 33 325 0.9 4.3 0.00 0.00 0.00 89 1017.3
20260510115206 33 325 0.9 4.3 0.00 0.00 0.00 89 1017.3
20260510114205 33 296 1.7 3.5 0.00 0.00 0.00 90 1016.9
20260510113205 33 50 0.9 1.7 0.00 0.00 0.00 89 1016.7
20260510112205 33 50 0.9 1.7 0.00 0.00 0.00 89 1016.7
20260510111206 33 273 0.9 1.7 0.00 0.00 0.00 88 1016.4
20260510110205 33 273 0.9 1.7 0.00 0.00 0.00 88 1016.4
20260510105205 33 292 0.0 1.7 0.00 0.00 0.00 87 1016.1
20260510104206 33 292 0.0 1.7 0.00 0.00 0.00 87 1016.1
20260510103205 33 307 0.0 1.7 0.00 0.00 0.00 85 1015.8
20260510102205 33 307 0.0 1.7 0.00 0.00 0.00 85 1015.8
20260510101205 33 317 0.0 2.6 0.00 0.00 0.00 83 1015.5
20260510100205 33 317 0.0 2.6 0.00 0.00 0.00 83 1015.5
20260510095205 34 311 0.0 4.3 0.00 0.00 0.00 83 1015.5
20260510094206 34 311 0.0 4.3 0.00 0.00 0.00 83 1015.5
20260510093205 34 288 0.9 7.8 0.00 0.00 0.00 82 1015.4
20260510092206 34 288 0.9 7.8 0.00 0.00 0.00 82 1015.4
20260510091206 33 21 0.0 0.9 0.00 0.00 0.00 77 1014.9
20260510090206 33 21 0.0 0.9 0.00 0.00 0.00 77 1014.9
20260510085206 32 21 0.0 1.7 0.00 0.00 0.00 77 1014.7
20260510084206 32 21 0.0 1.7 0.00 0.00 0.00 77 1014.7
20260510083206 32 21 0.0 1.7 0.00 0.00 0.00 75 1014.4
20260510082207 33 21 0.0 1.7 0.00 0.00 0.00 71 1014.4
20260510081207 33 21 0.0 1.7 0.00 0.00 0.00 71 1014.4
20260510080207 35 20 0.0 0.9 0.00 0.00 0.00 69 1014.1
20260510075206 35 20 0.0 0.9 0.00 0.00 0.00 69 1014.1
20260510074207 35 20 0.0 3.5 0.00 0.00 0.00 68 1014.1
20260510073206 35 20 0.0 3.5 0.00 0.00 0.00 68 1014.1
20260510072206 36 20 0.0 3.5 0.00 0.00 0.00 67 1014.0
20260510071207 36 20 0.0 3.5 0.00 0.00 0.00 67 1014.0
20260510070207 37 278 0.9 1.7 0.00 0.00 0.00 65 1013.9
20260510064207 37 321 0.0 1.7 0.00 0.00 0.00 64 1013.9
20260510062207 37 247 0.0 1.7 0.00 0.00 0.00 63 1013.9
20260510061207 37 247 0.0 1.7 0.00 0.00 0.00 63 1013.9
20260510060208 38 247 0.9 1.7 0.00 0.00 0.00 61 1013.7
20260510055207 38 247 0.9 1.7 0.00 0.00 0.00 61 1013.7
20260510054208 38 247 0.0 3.5 0.00 0.00 0.00 61 1013.6
20260510053208 38 247 0.0 3.5 0.00 0.00 0.00 61 1013.6
20260510052208 38 244 1.7 4.3 0.00 0.00 0.00 60 1013.4
20260510051208 38 331 0.9 6.1 0.00 0.00 0.00 60 1013.4
20260510050207 38 331 0.9 6.1 0.00 0.00 0.00 60 1013.4
20260510015208 44 322 4.3 10.4 0.00 0.00 0.00 45 1010.9
20260510014209 44 322 4.3 10.4 0.00 0.00 0.00 45 1010.9
20260510013209 44 322 4.3 10.4 0.00 0.00 0.00 45 1010.9
20260510012208 44 322 4.3 10.4 0.00 0.00 0.00 45 1010.9
20260510011208 44 322 4.3 10.4 0.00 0.00 0.00 45 1010.9
20260510010208 44 322 4.3 10.4 0.00 0.00 0.00 45 1010.9
20260510005209 44 322 4.3 10.4 0.00 0.00 0.00 45 1010.9
20260510004209 44 322 4.3 10.4 0.00 0.00 0.00 45 1010.9
20260510003208 44 322 4.3 10.4 0.00 0.00 0.00 45 1010.9
20260510002209 45 48 0.9 7.8 0.00 0.00 0.00 44 1010.7
20260510001210 45 38 0.9 7.0 0.00 0.00 0.00 43 1010.5
20260510000211 45 38 0.9 7.0 0.00 0.00 0.00 43 1010.5
20260509235210 46 313 1.7 15.6 0.00 0.00 0.00 43 1010.2
20260509234209 46 313 1.7 15.6 0.00 0.00 0.00 43 1010.2
20260509233209 48 15 7.0 11.3 0.00 0.00 0.00 39 1009.8
20260509232209 48 15 7.0 11.3 0.00 0.00 0.00 39 1009.8
20260509231209 47 40 0.9 11.3 0.00 0.00 0.00 43 1009.5
20260509230209 47 40 0.9 11.3 0.00 0.00 0.00 43 1009.5
20260509225210 48 5 4.3 10.4 0.00 0.00 0.00 43 1009.4
20260509224209 48 5 4.3 10.4 0.00 0.00 0.00 43 1009.4
20260509223209 47 311 5.2 8.7 0.00 0.00 0.00 44 1009.2
20260509222210 47 311 5.2 8.7 0.00 0.00 0.00 44 1009.2
20260509221209 48 113 0.9 8.7 0.00 0.00 0.00 42 1009.0
20260509220210 48 113 0.9 8.7 0.00 0.00 0.00 42 1009.0
20260509215210 49 16 3.5 11.3 0.00 0.00 0.00 40 1008.9
20260509214209 49 16 3.5 11.3 0.00 0.00 0.00 40 1008.9
20260509213209 49 197 4.3 8.7 0.00 0.00 0.00 40 1008.4
20260509212210 49 197 4.3 8.7 0.00 0.00 0.00 40 1008.4
20260509211210 49 331 3.5 8.7 0.00 0.00 0.00 39 1008.3
20260509210210 47 325 3.5 7.0 0.00 0.00 0.00 41 1008.4
20260509205210 47 325 3.5 7.0 0.00 0.00 0.00 41 1008.4
20260509204211 48 13 4.3 9.6 0.00 0.00 0.00 42 1008.1
20260509203211 48 13 4.3 9.6 0.00 0.00 0.00 42 1008.1
20260509202211 47 269 1.7 10.4 0.00 0.00 0.00 42 1008.1
20260509201210 47 269 1.7 10.4 0.00 0.00 0.00 42 1008.1
20260509200211 48 355 5.2 9.6 0.00 0.00 0.00 42 1007.9
20260509195210 48 355 5.2 9.6 0.00 0.00 0.00 42 1007.9
20260509194210 47 80 4.3 8.7 0.00 0.00 0.00 46 1007.6
20260509193210 47 80 4.3 8.7 0.00 0.00 0.00 46 1007.6
20260509192213 48 53 0.9 13.0 0.00 0.00 0.00 40 1007.5
20260509191210 48 53 0.9 13.0 0.00 0.00 0.00 40 1007.5
20260509190211 48 11 5.2 9.6 0.00 0.00 0.00 41 1007.2
20260509185210 48 11 5.2 9.6 0.00 0.00 0.00 41 1007.2
20260509182212 46 11 5.2 8.7 0.00 0.00 0.00 42 1007.0
20260509181212 46 11 5.2 8.7 0.00 0.00 0.00 42 1007.0
20260509180211 46 330 2.6 12.2 0.00 0.00 0.00 41 1006.8
20260509175211 47 210 4.3 13.9 0.00 0.00 0.00 41 1006.5
20260509174211 47 210 4.3 13.9 0.00 0.00 0.00 41 1006.5
20260509173212 46 134 2.6 12.2 0.00 0.00 0.00 43 1006.4
20260509172212 46 134 2.6 12.2 0.00 0.00 0.00 43 1006.4
20260509171212 45 21 3.5 13.0 0.00 0.00 0.00 43 1006.1
20260509170212 45 21 3.5 13.0 0.00 0.00 0.00 43 1006.1
20260509165212 47 96 5.2 10.4 0.00 0.00 0.00 42 1005.6
20260509164212 47 96 5.2 10.4 0.00 0.00 0.00 42 1005.6
20260509163212 47 342 7.8 17.4 0.00 0.00 0.00 43 1005.3
20260509162212 47 342 7.8 17.4 0.00 0.00 0.00 43 1005.3
20260509161211 47 59 6.1 17.4 0.00 0.00 0.00 44 1004.8
20260509160212 47 59 6.1 17.4 0.00 0.00 0.00 44 1004.8
20260509155211 46 36 1.7 11.3 0.00 0.00 0.00 46 1004.5
20260509154211 46 36 1.7 11.3 0.00 0.00 0.00 46 1004.5
20260509153211 45 294 6.1 13.0 0.00 0.00 0.00 47 1004.3
20260509152212 45 294 6.1 13.0 0.00 0.00 0.00 47 1004.3
20260509151211 44 351 1.7 10.4 0.00 0.00 0.00 50 1004.1
20260509150211 44 351 1.7 10.4 0.00 0.00 0.00 50 1004.1
20260509145213 46 319 1.7 12.2 0.00 0.00 0.00 50 1003.8
20260509144213 45 332 4.3 13.0 0.00 0.00 0.00 50 1003.3
20260509143212 45 332 4.3 13.0 0.00 0.00 0.00 50 1003.3
20260509142213 43 67 1.7 13.9 0.00 0.00 0.00 52 1003.2
20260509141212 43 67 1.7 13.9 0.00 0.00 0.00 52 1003.2
20260509140212 43 34 10.4 9.6 0.00 0.00 0.00 52 1002.8
20260509134213 42 53 2.6 12.2 0.00 0.00 0.00 51 1002.7
20260509133213 42 53 2.6 12.2 0.00 0.00 0.00 51 1002.7
20260509132212 42 54 3.5 10.4 0.00 0.00 0.00 51 1002.5
20260509131212 42 54 3.5 10.4 0.00 0.00 0.00 51 1002.5